Year,Month,Day,Hour,Minute,Value (Times are PST for temperature in C)
2010,10,16,00,00,3.90
2010,10,16,00,01,3.90
2010,10,16,00,02,3.90
2010,10,16,00,03,3.90
2010,10,16,00,04,3.80
2010,10,16,00,05,3.80
2010,10,16,00,06,3.80
2010,10,16,00,07,3.80
2010,10,16,00,08,3.80
2010,10,16,00,09,3.70
2010,10,16,00,10,3.70
2010,10,16,00,11,3.60
2010,10,16,00,12,3.60
2010,10,16,00,13,3.60
2010,10,16,00,14,3.50
2010,10,16,00,15,3.50
2010,10,16,00,16,3.50
2010,10,16,00,17,3.40
2010,10,16,00,18,3.40
2010,10,16,00,19,3.40
2010,10,16,00,20,3.40
2010,10,16,00,21,3.30
2010,10,16,00,22,3.30
2010,10,16,00,23,3.30
2010,10,16,00,24,3.30
2010,10,16,00,25,3.20
2010,10,16,00,26,3.20
2010,10,16,00,27,3.20
2010,10,16,00,28,3.20
2010,10,16,00,29,3.10
2010,10,16,00,30,3.10
2010,10,16,00,31,3.10
2010,10,16,00,32,3.10
2010,10,16,00,33,3.10
2010,10,16,00,34,3.00
2010,10,16,00,35,3.00
2010,10,16,00,36,3.00
2010,10,16,00,37,3.00
2010,10,16,00,38,2.90
2010,10,16,00,39,2.90
2010,10,16,00,40,2.90
2010,10,16,00,41,2.90
2010,10,16,00,42,2.90
2010,10,16,00,43,2.80
2010,10,16,00,44,2.80
2010,10,16,00,45,2.80
2010,10,16,00,46,2.80
2010,10,16,00,47,2.80
2010,10,16,00,48,2.80
2010,10,16,00,49,2.70
2010,10,16,00,50,2.70
2010,10,16,00,51,2.70
2010,10,16,00,52,2.70
2010,10,16,00,53,2.70
2010,10,16,00,54,2.60
2010,10,16,00,55,2.60
2010,10,16,00,56,2.60
2010,10,16,00,57,2.60
2010,10,16,00,58,2.60
2010,10,16,00,59,2.60
2010,10,16,01,00,2.60
2010,10,16,01,01,2.60
2010,10,16,01,02,2.60
2010,10,16,01,03,2.60
2010,10,16,01,04,2.60
2010,10,16,01,05,2.60
2010,10,16,01,06,2.50
2010,10,16,01,07,2.50
2010,10,16,01,08,2.50
2010,10,16,01,09,2.50
2010,10,16,01,10,2.50
2010,10,16,01,11,2.50
2010,10,16,01,12,2.50
2010,10,16,01,13,2.50
2010,10,16,01,14,2.50
2010,10,16,01,15,2.50
2010,10,16,01,16,2.50
2010,10,16,01,17,2.40
2010,10,16,01,18,2.40
2010,10,16,01,19,2.40
2010,10,16,01,20,2.40
2010,10,16,01,21,2.40
2010,10,16,01,22,2.40
2010,10,16,01,23,2.40
2010,10,16,01,24,2.40
2010,10,16,01,25,2.40
2010,10,16,01,26,2.40
2010,10,16,01,27,2.40
2010,10,16,01,28,2.50
2010,10,16,01,29,2.50
2010,10,16,01,30,2.50
2010,10,16,01,31,2.60
2010,10,16,01,32,2.60
2010,10,16,01,33,2.60
2010,10,16,01,34,2.60
2010,10,16,01,35,2.60
2010,10,16,01,36,2.50
2010,10,16,01,37,2.50
2010,10,16,01,38,2.50
2010,10,16,01,39,2.40
2010,10,16,01,40,2.40
2010,10,16,01,41,2.40
2010,10,16,01,42,2.40
2010,10,16,01,43,2.40
2010,10,16,01,44,2.40
2010,10,16,01,45,2.40
2010,10,16,01,46,2.40
2010,10,16,01,47,2.40
2010,10,16,01,48,2.40
2010,10,16,01,49,2.40
2010,10,16,01,50,2.40
2010,10,16,01,51,2.40
2010,10,16,01,52,2.30
2010,10,16,01,53,2.30
2010,10,16,01,54,2.30
2010,10,16,01,55,2.30
2010,10,16,01,56,2.40
2010,10,16,01,57,2.40
2010,10,16,01,58,2.40
2010,10,16,01,59,2.40
2010,10,16,02,00,2.40
2010,10,16,02,01,2.50
2010,10,16,02,02,2.50
2010,10,16,02,03,2.60
2010,10,16,02,04,2.60
2010,10,16,02,05,2.70
2010,10,16,02,06,2.70
2010,10,16,02,07,2.70
2010,10,16,02,08,2.70
2010,10,16,02,09,2.70
2010,10,16,02,10,2.80
2010,10,16,02,11,2.80
2010,10,16,02,12,2.80
2010,10,16,02,13,2.70
2010,10,16,02,14,2.70
2010,10,16,02,15,2.70
2010,10,16,02,16,2.70
2010,10,16,02,17,2.70
2010,10,16,02,18,2.70
2010,10,16,02,19,2.60
2010,10,16,02,20,2.60
2010,10,16,02,21,2.60
2010,10,16,02,22,2.60
2010,10,16,02,23,2.50
2010,10,16,02,24,2.50
2010,10,16,02,25,2.40
2010,10,16,02,26,2.40
2010,10,16,02,27,2.40
2010,10,16,02,28,2.40
2010,10,16,02,29,2.40
2010,10,16,02,30,2.40
2010,10,16,02,31,2.30
2010,10,16,02,32,2.30
2010,10,16,02,33,2.30
2010,10,16,02,34,2.30
2010,10,16,02,35,2.30
2010,10,16,02,36,2.30
2010,10,16,02,37,2.30
2010,10,16,02,38,2.30
2010,10,16,02,39,2.20
2010,10,16,02,40,2.20
2010,10,16,02,41,2.20
2010,10,16,02,42,2.20
2010,10,16,02,43,2.20
2010,10,16,02,44,2.20
2010,10,16,02,45,2.20
2010,10,16,02,46,2.20
2010,10,16,02,47,2.20
2010,10,16,02,48,2.20
2010,10,16,02,49,2.20
2010,10,16,02,50,2.20
2010,10,16,02,51,2.20
2010,10,16,02,52,2.20
2010,10,16,02,53,2.20
2010,10,16,02,54,2.20
2010,10,16,02,55,2.20
2010,10,16,02,56,2.10
2010,10,16,02,57,2.10
2010,10,16,02,58,2.10
2010,10,16,02,59,2.10
2010,10,16,03,00,2.10
2010,10,16,03,01,2.10
2010,10,16,03,02,2.10
2010,10,16,03,03,2.00
2010,10,16,03,04,2.00
2010,10,16,03,05,2.00
2010,10,16,03,06,2.00
2010,10,16,03,07,2.00
2010,10,16,03,08,2.00
2010,10,16,03,09,2.00
2010,10,16,03,10,2.00
2010,10,16,03,11,2.00
2010,10,16,03,12,2.00
2010,10,16,03,13,2.00
2010,10,16,03,14,2.00
2010,10,16,03,15,2.00
2010,10,16,03,16,2.00
2010,10,16,03,17,2.00
2010,10,16,03,18,2.00
2010,10,16,03,19,2.00
2010,10,16,03,20,2.00
2010,10,16,03,21,2.00
2010,10,16,03,22,2.00
2010,10,16,03,23,2.00
2010,10,16,03,24,2.10
2010,10,16,03,25,2.10
2010,10,16,03,26,2.10
2010,10,16,03,27,2.10
2010,10,16,03,28,2.10
2010,10,16,03,29,2.10
2010,10,16,03,30,2.10
2010,10,16,03,31,2.10
2010,10,16,03,32,2.10
2010,10,16,03,33,2.10
2010,10,16,03,34,2.10
2010,10,16,03,35,2.10
2010,10,16,03,36,2.10
2010,10,16,03,37,2.10
2010,10,16,03,38,2.10
2010,10,16,03,39,2.10
2010,10,16,03,40,2.10
2010,10,16,03,41,2.10
2010,10,16,03,42,2.10
2010,10,16,03,43,2.10
2010,10,16,03,44,2.10
2010,10,16,03,45,2.10
2010,10,16,03,46,2.10
2010,10,16,03,47,2.10
2010,10,16,03,48,2.10
2010,10,16,03,49,2.20
2010,10,16,03,50,2.20
2010,10,16,03,51,2.20
2010,10,16,03,52,2.10
2010,10,16,03,53,2.10
2010,10,16,03,54,2.10
2010,10,16,03,55,2.10
2010,10,16,03,56,2.10
2010,10,16,03,57,2.10
2010,10,16,03,58,2.10
2010,10,16,03,59,2.10
2010,10,16,04,00,2.10
2010,10,16,04,01,2.10
2010,10,16,04,02,2.10
2010,10,16,04,03,2.10
2010,10,16,04,04,2.10
2010,10,16,04,05,2.10
2010,10,16,04,06,2.10
2010,10,16,04,07,2.10
2010,10,16,04,08,2.10
2010,10,16,04,09,2.10
2010,10,16,04,10,2.10
2010,10,16,04,11,2.10
2010,10,16,04,12,2.10
2010,10,16,04,13,2.10
2010,10,16,04,14,2.10
2010,10,16,04,15,2.10
2010,10,16,04,16,2.10
2010,10,16,04,17,2.10
2010,10,16,04,18,2.20
2010,10,16,04,19,2.20
2010,10,16,04,20,2.20
2010,10,16,04,21,2.20
2010,10,16,04,22,2.20
2010,10,16,04,23,2.20
2010,10,16,04,24,2.30
2010,10,16,04,25,2.30
2010,10,16,04,26,2.30
2010,10,16,04,27,2.30
2010,10,16,04,28,2.30
2010,10,16,04,29,2.30
2010,10,16,04,30,2.40
2010,10,16,04,31,2.40
2010,10,16,04,32,2.40
2010,10,16,04,33,2.40
2010,10,16,04,34,2.40
2010,10,16,04,35,2.40
2010,10,16,04,36,2.40
2010,10,16,04,37,2.40
2010,10,16,04,38,2.40
2010,10,16,04,39,2.50
2010,10,16,04,40,2.50
2010,10,16,04,41,2.60
2010,10,16,04,42,2.70
2010,10,16,04,43,2.80
2010,10,16,04,44,2.80
2010,10,16,04,45,3.00
2010,10,16,04,46,3.00
2010,10,16,04,47,3.10
2010,10,16,04,48,3.20
2010,10,16,04,49,3.30
2010,10,16,04,50,3.30
2010,10,16,04,51,3.30
2010,10,16,04,52,3.30
2010,10,16,04,53,3.30
2010,10,16,04,54,3.30
2010,10,16,04,55,3.30
2010,10,16,04,56,3.30
2010,10,16,04,57,3.30
2010,10,16,04,58,3.30
2010,10,16,04,59,3.40
2010,10,16,05,00,3.50
2010,10,16,05,01,3.60
2010,10,16,05,02,3.70
2010,10,16,05,03,3.70
2010,10,16,05,04,3.80
2010,10,16,05,05,3.90
2010,10,16,05,06,4.00
2010,10,16,05,07,4.10
2010,10,16,05,08,4.20
2010,10,16,05,09,4.30
2010,10,16,05,10,4.50
2010,10,16,05,11,4.60
2010,10,16,05,12,4.60
2010,10,16,05,13,4.60
2010,10,16,05,14,4.60
2010,10,16,05,15,4.60
2010,10,16,05,16,4.50
2010,10,16,05,17,4.50
2010,10,16,05,18,4.40
2010,10,16,05,19,4.30
2010,10,16,05,20,4.30
2010,10,16,05,21,4.30
2010,10,16,05,22,4.20
2010,10,16,05,23,4.10
2010,10,16,05,24,4.10
2010,10,16,05,25,4.00
2010,10,16,05,26,3.90
2010,10,16,05,27,3.80
2010,10,16,05,28,3.80
2010,10,16,05,29,3.70
2010,10,16,05,30,3.70
2010,10,16,05,31,3.70
2010,10,16,05,32,3.70
2010,10,16,05,33,3.70
2010,10,16,05,34,3.70
2010,10,16,05,35,3.70
2010,10,16,05,36,3.70
2010,10,16,05,37,3.70
2010,10,16,05,38,3.70
2010,10,16,05,39,3.70
2010,10,16,05,40,3.70
2010,10,16,05,41,3.70
2010,10,16,05,42,3.70
2010,10,16,05,43,3.70
2010,10,16,05,44,3.70
2010,10,16,05,45,3.70
2010,10,16,05,46,3.70
2010,10,16,05,47,3.60
2010,10,16,05,48,3.60
2010,10,16,05,49,3.60
2010,10,16,05,50,3.60
2010,10,16,05,51,3.60
2010,10,16,05,52,3.50
2010,10,16,05,53,3.50
2010,10,16,05,54,3.50
2010,10,16,05,55,3.50
2010,10,16,05,56,3.40
2010,10,16,05,57,3.40
2010,10,16,05,58,3.40
2010,10,16,05,59,3.40
2010,10,16,06,00,3.40
2010,10,16,06,01,3.30
2010,10,16,06,02,3.30
2010,10,16,06,03,3.30
2010,10,16,06,04,3.30
2010,10,16,06,05,3.30
2010,10,16,06,06,3.30
2010,10,16,06,07,3.30
2010,10,16,06,08,3.30
2010,10,16,06,09,3.30
2010,10,16,06,10,3.30
2010,10,16,06,11,3.30
2010,10,16,06,12,3.20
2010,10,16,06,13,3.30
2010,10,16,06,14,3.30
2010,10,16,06,15,3.30
2010,10,16,06,16,3.30
2010,10,16,06,17,3.20
2010,10,16,06,18,3.20
2010,10,16,06,19,3.20
2010,10,16,06,20,3.20
2010,10,16,06,21,3.20
2010,10,16,06,22,3.20
2010,10,16,06,23,3.20
2010,10,16,06,24,3.20
2010,10,16,06,25,3.20
2010,10,16,06,26,3.20
2010,10,16,06,27,3.10
2010,10,16,06,28,3.10
2010,10,16,06,29,3.10
2010,10,16,06,30,3.10
2010,10,16,06,31,3.10
2010,10,16,06,32,3.10
2010,10,16,06,33,3.00
2010,10,16,06,34,3.00
2010,10,16,06,35,3.00
2010,10,16,06,36,3.00
2010,10,16,06,37,3.00
2010,10,16,06,38,2.90
2010,10,16,06,39,2.90
2010,10,16,06,40,2.90
2010,10,16,06,41,3.00
2010,10,16,06,42,3.00
2010,10,16,06,43,3.00
2010,10,16,06,44,3.00
2010,10,16,06,45,3.00
2010,10,16,06,46,3.00
2010,10,16,06,47,3.00
2010,10,16,06,48,3.00
2010,10,16,06,49,2.90
2010,10,16,06,50,2.90
2010,10,16,06,51,2.90
2010,10,16,06,52,2.90
2010,10,16,06,53,2.90
2010,10,16,06,54,2.90
2010,10,16,06,55,2.90
2010,10,16,06,56,2.90
2010,10,16,06,57,2.80
2010,10,16,06,58,2.80
2010,10,16,06,59,2.80
2010,10,16,07,00,2.80
2010,10,16,07,01,2.80
2010,10,16,07,02,2.80
2010,10,16,07,03,2.70
2010,10,16,07,04,2.70
2010,10,16,07,05,2.70
2010,10,16,07,06,2.70
2010,10,16,07,07,2.70
2010,10,16,07,08,2.70
2010,10,16,07,09,2.70
2010,10,16,07,10,2.70
2010,10,16,07,11,2.70
2010,10,16,07,12,2.70
2010,10,16,07,13,2.70
2010,10,16,07,14,2.70
2010,10,16,07,15,2.70
2010,10,16,07,16,2.70
2010,10,16,07,17,2.60
2010,10,16,07,18,2.60
2010,10,16,07,19,2.60
2010,10,16,07,20,2.60
2010,10,16,07,21,2.60
2010,10,16,07,22,2.50
2010,10,16,07,23,2.50
2010,10,16,07,24,2.50
2010,10,16,07,25,2.50
2010,10,16,07,26,2.40
2010,10,16,07,27,2.40
2010,10,16,07,28,2.40
2010,10,16,07,29,2.40
2010,10,16,07,30,2.40
2010,10,16,07,31,2.40
2010,10,16,07,32,2.40
2010,10,16,07,33,2.40
2010,10,16,07,34,2.40
2010,10,16,07,35,2.40
2010,10,16,07,36,2.40
2010,10,16,07,37,2.40
2010,10,16,07,38,2.40
2010,10,16,07,39,2.40
2010,10,16,07,40,2.40
2010,10,16,07,41,2.40
2010,10,16,07,42,2.40
2010,10,16,07,43,2.40
2010,10,16,07,44,2.40
2010,10,16,07,45,2.40
2010,10,16,07,46,2.50
2010,10,16,07,47,2.50
2010,10,16,07,48,2.50
2010,10,16,07,49,2.60
2010,10,16,07,50,2.60
2010,10,16,07,51,2.60
2010,10,16,07,52,2.70
2010,10,16,07,53,2.70
2010,10,16,07,54,2.70
2010,10,16,07,55,2.60
2010,10,16,07,56,2.60
2010,10,16,07,57,2.60
2010,10,16,07,58,2.60
2010,10,16,07,59,2.60
2010,10,16,08,00,2.60
2010,10,16,08,01,2.60
2010,10,16,08,02,2.60
2010,10,16,08,03,2.60
2010,10,16,08,04,2.60
2010,10,16,08,05,2.60
2010,10,16,08,06,2.60
2010,10,16,08,07,2.60
2010,10,16,08,08,2.60
2010,10,16,08,09,2.60
2010,10,16,08,10,2.70
2010,10,16,08,11,2.70
2010,10,16,08,12,2.70
2010,10,16,08,13,2.80
2010,10,16,08,14,2.80
2010,10,16,08,15,2.80
2010,10,16,08,16,2.90
2010,10,16,08,17,3.00
2010,10,16,08,18,3.00
2010,10,16,08,19,3.10
2010,10,16,08,20,3.20
2010,10,16,08,21,3.20
2010,10,16,08,22,3.20
2010,10,16,08,23,3.30
2010,10,16,08,24,3.30
2010,10,16,08,25,3.40
2010,10,16,08,26,3.40
2010,10,16,08,27,3.40
2010,10,16,08,28,3.50
2010,10,16,08,29,3.50
2010,10,16,08,30,3.50
2010,10,16,08,31,3.60
2010,10,16,08,32,3.60
2010,10,16,08,33,3.70
2010,10,16,08,34,3.70
2010,10,16,08,35,3.70
2010,10,16,08,36,3.80
2010,10,16,08,37,3.80
2010,10,16,08,38,3.90
2010,10,16,08,39,3.90
2010,10,16,08,40,4.00
2010,10,16,08,41,4.10
2010,10,16,08,42,4.10
2010,10,16,08,43,4.20
2010,10,16,08,44,4.30
2010,10,16,08,45,4.30
2010,10,16,08,46,4.40
2010,10,16,08,47,4.50
2010,10,16,08,48,4.60
2010,10,16,08,49,4.60
2010,10,16,08,50,4.70
2010,10,16,08,51,4.80
2010,10,16,08,52,4.90
2010,10,16,08,53,5.00
2010,10,16,08,54,5.10
2010,10,16,08,55,5.20
2010,10,16,08,56,5.20
2010,10,16,08,57,5.20
2010,10,16,08,58,5.20
2010,10,16,08,59,5.20
2010,10,16,09,00,5.20
2010,10,16,09,01,5.20
2010,10,16,09,02,5.20
2010,10,16,09,03,5.30
2010,10,16,09,04,5.30
2010,10,16,09,05,5.40
2010,10,16,09,06,5.50
2010,10,16,09,07,5.50
2010,10,16,09,08,5.60
2010,10,16,09,09,5.70
2010,10,16,09,10,5.80
2010,10,16,09,11,5.90
2010,10,16,09,12,6.10
2010,10,16,09,13,6.20
2010,10,16,09,14,6.30
2010,10,16,09,15,6.40
2010,10,16,09,16,6.50
2010,10,16,09,17,6.60
2010,10,16,09,18,6.70
2010,10,16,09,19,6.80
2010,10,16,09,20,6.90
2010,10,16,09,21,7.00
2010,10,16,09,22,7.20
2010,10,16,09,23,7.20
2010,10,16,09,24,7.30
2010,10,16,09,25,7.40
2010,10,16,09,26,7.40
2010,10,16,09,27,7.50
2010,10,16,09,28,7.50
2010,10,16,09,29,7.60
2010,10,16,09,30,7.60
2010,10,16,09,31,7.70
2010,10,16,09,32,7.70
2010,10,16,09,33,7.70
2010,10,16,09,34,7.80
2010,10,16,09,35,7.90
2010,10,16,09,36,8.00
2010,10,16,09,37,8.00
2010,10,16,09,38,8.10
2010,10,16,09,39,8.20
2010,10,16,09,40,8.30
2010,10,16,09,41,8.40
2010,10,16,09,42,8.50
2010,10,16,09,43,8.60
2010,10,16,09,44,8.70
2010,10,16,09,45,8.80
2010,10,16,09,46,8.90
2010,10,16,09,47,9.00
2010,10,16,09,48,9.10
2010,10,16,09,49,9.20
2010,10,16,09,50,9.20
2010,10,16,09,51,9.30
2010,10,16,09,52,9.30
2010,10,16,09,53,9.40
2010,10,16,09,54,9.30
2010,10,16,09,55,9.30
2010,10,16,09,56,9.30
2010,10,16,09,57,9.30
2010,10,16,09,58,9.30
2010,10,16,09,59,9.30
2010,10,16,10,00,9.30
2010,10,16,10,01,9.40
2010,10,16,10,02,9.40
2010,10,16,10,03,9.40
2010,10,16,10,04,9.50
2010,10,16,10,05,9.50
2010,10,16,10,06,9.40
2010,10,16,10,07,9.50
2010,10,16,10,08,9.50
2010,10,16,10,09,9.50
2010,10,16,10,10,9.50
2010,10,16,10,11,9.50
2010,10,16,10,12,9.50
2010,10,16,10,13,9.60
2010,10,16,10,14,9.60
2010,10,16,10,15,9.60
2010,10,16,10,16,9.60
2010,10,16,10,17,9.60
2010,10,16,10,18,9.60
2010,10,16,10,19,9.60
2010,10,16,10,20,9.60
2010,10,16,10,21,9.60
2010,10,16,10,22,9.60
2010,10,16,10,23,9.60
2010,10,16,10,24,9.60
2010,10,16,10,25,9.70
2010,10,16,10,26,9.80
2010,10,16,10,27,9.80
2010,10,16,10,28,9.80
2010,10,16,10,29,9.90
2010,10,16,10,30,9.90
2010,10,16,10,31,9.90
2010,10,16,10,32,10.00
2010,10,16,10,33,10.00
2010,10,16,10,34,10.00
2010,10,16,10,35,9.90
2010,10,16,10,36,9.90
2010,10,16,10,37,9.90
2010,10,16,10,38,9.90
2010,10,16,10,39,9.90
2010,10,16,10,40,9.90
2010,10,16,10,41,9.80
2010,10,16,10,42,9.80
2010,10,16,10,43,9.70
2010,10,16,10,44,9.70
2010,10,16,10,45,9.70
2010,10,16,10,46,9.70
2010,10,16,10,47,9.70
2010,10,16,10,48,9.70
2010,10,16,10,49,9.70
2010,10,16,10,50,9.60
2010,10,16,10,51,9.60
2010,10,16,10,52,9.60
2010,10,16,10,53,9.60
2010,10,16,10,54,9.60
2010,10,16,10,55,9.70
2010,10,16,10,56,9.70
2010,10,16,10,57,9.80
2010,10,16,10,58,9.80
2010,10,16,10,59,9.90
2010,10,16,11,00,10.00
2010,10,16,11,01,10.10
2010,10,16,11,02,10.20
2010,10,16,11,03,10.30
2010,10,16,11,04,10.30
2010,10,16,11,05,10.40
2010,10,16,11,06,10.50
2010,10,16,11,07,10.60
2010,10,16,11,08,10.70
2010,10,16,11,09,10.70
2010,10,16,11,10,10.80
2010,10,16,11,11,10.80
2010,10,16,11,12,10.80
2010,10,16,11,13,10.80
2010,10,16,11,14,10.80
2010,10,16,11,15,10.80
2010,10,16,11,16,10.90
2010,10,16,11,17,10.90
2010,10,16,11,18,11.00
2010,10,16,11,19,11.00
2010,10,16,11,20,11.00
2010,10,16,11,21,11.10
2010,10,16,11,22,11.10
2010,10,16,11,23,11.10
2010,10,16,11,24,11.10
2010,10,16,11,25,11.10
2010,10,16,11,26,11.20
2010,10,16,11,27,11.20
2010,10,16,11,28,11.20
2010,10,16,11,29,11.20
2010,10,16,11,30,11.10
2010,10,16,11,31,11.10
2010,10,16,11,32,11.10
2010,10,16,11,33,11.10
2010,10,16,11,34,11.10
2010,10,16,11,35,11.10
2010,10,16,11,36,11.00
2010,10,16,11,37,11.00
2010,10,16,11,38,10.90
2010,10,16,11,39,10.90
2010,10,16,11,40,10.80
2010,10,16,11,41,10.70
2010,10,16,11,42,10.70
2010,10,16,11,43,10.70
2010,10,16,11,44,10.70
2010,10,16,11,45,10.70
2010,10,16,11,46,10.70
2010,10,16,11,47,10.80
2010,10,16,11,48,10.80
2010,10,16,11,49,10.80
2010,10,16,11,50,10.80
2010,10,16,11,51,10.80
2010,10,16,11,52,10.80
2010,10,16,11,53,10.80
2010,10,16,11,54,10.80
2010,10,16,11,55,10.80
2010,10,16,11,56,10.80
2010,10,16,11,57,10.80
2010,10,16,11,58,10.90
2010,10,16,11,59,10.80
2010,10,16,12,00,10.80
2010,10,16,12,01,10.80
2010,10,16,12,02,10.80
2010,10,16,12,03,10.80
2010,10,16,12,04,10.80
2010,10,16,12,05,10.80
2010,10,16,12,06,10.80
2010,10,16,12,07,10.80
2010,10,16,12,08,10.80
2010,10,16,12,09,10.80
2010,10,16,12,10,10.80
2010,10,16,12,11,10.80
2010,10,16,12,12,10.80
2010,10,16,12,13,10.90
2010,10,16,12,14,10.90
2010,10,16,12,15,10.90
2010,10,16,12,16,10.90
2010,10,16,12,17,10.90
2010,10,16,12,18,11.00
2010,10,16,12,19,11.00
2010,10,16,12,20,11.00
2010,10,16,12,21,11.00
2010,10,16,12,22,11.00
2010,10,16,12,23,11.00
2010,10,16,12,24,11.00
2010,10,16,12,25,10.90
2010,10,16,12,26,10.90
2010,10,16,12,27,10.80
2010,10,16,12,28,10.80
2010,10,16,12,29,10.80
2010,10,16,12,30,10.80
2010,10,16,12,31,10.80
2010,10,16,12,32,10.80
2010,10,16,12,33,10.80
2010,10,16,12,34,10.90
2010,10,16,12,35,10.80
2010,10,16,12,36,10.80
2010,10,16,12,37,10.70
2010,10,16,12,38,10.70
2010,10,16,12,39,10.70
2010,10,16,12,40,10.70
2010,10,16,12,41,10.70
2010,10,16,12,42,10.70
2010,10,16,12,43,10.70
2010,10,16,12,44,10.60
2010,10,16,12,45,10.60
2010,10,16,12,46,10.60
2010,10,16,12,47,10.60
2010,10,16,12,48,10.60
2010,10,16,12,49,10.70
2010,10,16,12,50,10.70
2010,10,16,12,51,10.70
2010,10,16,12,52,10.70
2010,10,16,12,53,10.80
2010,10,16,12,54,10.80
2010,10,16,12,55,10.80
2010,10,16,12,56,10.80
2010,10,16,12,57,10.90
2010,10,16,12,58,10.90
2010,10,16,12,59,11.00
2010,10,16,13,00,11.00
2010,10,16,13,01,11.00
2010,10,16,13,02,11.00
2010,10,16,13,03,11.00
2010,10,16,13,04,11.00
2010,10,16,13,05,11.10
2010,10,16,13,06,11.00
2010,10,16,13,07,11.00
2010,10,16,13,08,11.00
2010,10,16,13,09,10.90
2010,10,16,13,10,10.90
2010,10,16,13,11,10.80
2010,10,16,13,12,10.80
2010,10,16,13,13,10.80
2010,10,16,13,14,10.70
2010,10,16,13,15,10.60
2010,10,16,13,16,10.60
2010,10,16,13,17,10.60
2010,10,16,13,18,10.50
2010,10,16,13,19,10.50
2010,10,16,13,20,10.50
2010,10,16,13,21,10.50
2010,10,16,13,22,10.50
2010,10,16,13,23,10.50
2010,10,16,13,24,10.60
2010,10,16,13,25,10.60
2010,10,16,13,26,10.70
2010,10,16,13,27,10.70
2010,10,16,13,28,10.70
2010,10,16,13,29,10.70
2010,10,16,13,30,10.80
2010,10,16,13,31,10.80
2010,10,16,13,32,10.80
2010,10,16,13,33,10.80
2010,10,16,13,34,10.80
2010,10,16,13,35,10.80
2010,10,16,13,36,10.80
2010,10,16,13,37,10.80
2010,10,16,13,38,10.80
2010,10,16,13,39,10.80
2010,10,16,13,40,10.80
2010,10,16,13,41,10.80
2010,10,16,13,42,10.80
2010,10,16,13,43,10.80
2010,10,16,13,44,10.80
2010,10,16,13,45,10.80
2010,10,16,13,46,10.80
2010,10,16,13,47,10.80
2010,10,16,13,48,10.80
2010,10,16,13,49,10.80
2010,10,16,13,50,10.90
2010,10,16,13,51,11.00
2010,10,16,13,52,11.00
2010,10,16,13,53,11.10
2010,10,16,13,54,11.20
2010,10,16,13,55,11.30
2010,10,16,13,56,11.40
2010,10,16,13,57,11.40
2010,10,16,13,58,11.50
2010,10,16,13,59,11.50
2010,10,16,14,00,11.40
2010,10,16,14,01,11.40
2010,10,16,14,02,11.30
2010,10,16,14,03,11.30
2010,10,16,14,04,11.30
2010,10,16,14,05,11.30
2010,10,16,14,06,11.30
2010,10,16,14,07,11.30
2010,10,16,14,08,11.30
2010,10,16,14,09,11.30
2010,10,16,14,10,11.30
2010,10,16,14,11,11.30
2010,10,16,14,12,11.30
2010,10,16,14,13,11.30
2010,10,16,14,14,11.30
2010,10,16,14,15,11.30
2010,10,16,14,16,11.20
2010,10,16,14,17,11.20
2010,10,16,14,18,11.20
2010,10,16,14,19,11.30
2010,10,16,14,20,11.30
2010,10,16,14,21,11.30
2010,10,16,14,22,11.30
2010,10,16,14,23,11.30
2010,10,16,14,24,11.30
2010,10,16,14,25,11.30
2010,10,16,14,26,11.30
2010,10,16,14,27,11.30
2010,10,16,14,28,11.20
2010,10,16,14,29,11.30
2010,10,16,14,30,11.30
2010,10,16,14,31,11.30
2010,10,16,14,32,11.40
2010,10,16,14,33,11.40
2010,10,16,14,34,11.40
2010,10,16,14,35,11.40
2010,10,16,14,36,11.40
2010,10,16,14,37,11.40
2010,10,16,14,38,11.40
2010,10,16,14,39,11.40
2010,10,16,14,40,11.40
2010,10,16,14,41,11.30
2010,10,16,14,42,11.30
2010,10,16,14,43,11.30
2010,10,16,14,44,11.30
2010,10,16,14,45,11.30
2010,10,16,14,46,11.30
2010,10,16,14,47,11.40
2010,10,16,14,48,11.40
2010,10,16,14,49,11.40
2010,10,16,14,50,11.40
2010,10,16,14,51,11.40
2010,10,16,14,52,11.40
2010,10,16,14,53,11.40
2010,10,16,14,54,11.40
2010,10,16,14,55,11.30
2010,10,16,14,56,11.30
2010,10,16,14,57,11.30
2010,10,16,14,58,11.30
2010,10,16,14,59,11.40
2010,10,16,15,00,11.40
2010,10,16,15,01,11.40
2010,10,16,15,02,11.40
2010,10,16,15,03,11.40
2010,10,16,15,04,11.40
2010,10,16,15,05,11.50
2010,10,16,15,06,11.50
2010,10,16,15,07,11.60
2010,10,16,15,08,11.60
2010,10,16,15,09,11.60
2010,10,16,15,10,11.70
2010,10,16,15,11,11.70
2010,10,16,15,12,11.70
2010,10,16,15,13,11.70
2010,10,16,15,14,11.70
2010,10,16,15,15,11.70
2010,10,16,15,16,11.70
2010,10,16,15,17,11.70
2010,10,16,15,18,11.70
2010,10,16,15,19,11.70
2010,10,16,15,20,11.70
2010,10,16,15,21,11.70
2010,10,16,15,22,11.70
2010,10,16,15,23,11.70
2010,10,16,15,24,11.70
2010,10,16,15,25,11.70
2010,10,16,15,26,11.80
2010,10,16,15,27,11.80
2010,10,16,15,28,11.80
2010,10,16,15,29,11.80
2010,10,16,15,30,11.80
2010,10,16,15,31,11.80
2010,10,16,15,32,11.80
2010,10,16,15,33,11.80
2010,10,16,15,34,11.80
2010,10,16,15,35,11.70
2010,10,16,15,36,11.70
2010,10,16,15,37,11.70
2010,10,16,15,38,11.70
2010,10,16,15,39,11.70
2010,10,16,15,40,11.70
2010,10,16,15,41,11.70
2010,10,16,15,42,11.70
2010,10,16,15,43,11.70
2010,10,16,15,44,11.70
2010,10,16,15,45,11.70
2010,10,16,15,46,11.70
2010,10,16,15,47,11.70
2010,10,16,15,48,11.60
2010,10,16,15,49,11.60
2010,10,16,15,50,11.60
2010,10,16,15,51,11.60
2010,10,16,15,52,11.50
2010,10,16,15,53,11.50
2010,10,16,15,54,11.50
2010,10,16,15,55,11.50
2010,10,16,15,56,11.50
2010,10,16,15,57,11.50
2010,10,16,15,58,11.50
2010,10,16,15,59,11.50
2010,10,16,16,00,11.60
2010,10,16,16,01,11.60
2010,10,16,16,02,11.60
2010,10,16,16,03,11.60
2010,10,16,16,04,11.60
2010,10,16,16,05,11.70
2010,10,16,16,06,11.70
2010,10,16,16,07,11.70
2010,10,16,16,08,11.70
2010,10,16,16,09,11.70
2010,10,16,16,10,11.70
2010,10,16,16,11,11.70
2010,10,16,16,12,11.70
2010,10,16,16,13,11.60
2010,10,16,16,14,11.60
2010,10,16,16,15,11.50
2010,10,16,16,16,11.50
2010,10,16,16,17,11.50
2010,10,16,16,18,11.50
2010,10,16,16,19,11.50
2010,10,16,16,20,11.50
2010,10,16,16,21,11.50
2010,10,16,16,22,11.50
2010,10,16,16,23,11.50
2010,10,16,16,24,11.60
2010,10,16,16,25,11.60
2010,10,16,16,26,11.60
2010,10,16,16,27,11.60
2010,10,16,16,28,11.60
2010,10,16,16,29,11.60
2010,10,16,16,30,11.60
2010,10,16,16,31,11.60
2010,10,16,16,32,11.70
2010,10,16,16,33,11.70
2010,10,16,16,34,11.70
2010,10,16,16,35,11.70
2010,10,16,16,36,11.60
2010,10,16,16,37,11.60
2010,10,16,16,38,11.60
2010,10,16,16,39,11.60
2010,10,16,16,40,11.60
2010,10,16,16,41,11.60
2010,10,16,16,42,11.60
2010,10,16,16,43,11.60
2010,10,16,16,44,11.60
2010,10,16,16,45,11.60
2010,10,16,16,46,11.60
2010,10,16,16,47,11.60
2010,10,16,16,48,11.60
2010,10,16,16,49,11.60
2010,10,16,16,50,11.60
2010,10,16,16,51,11.60
2010,10,16,16,52,11.60
2010,10,16,16,53,11.60
2010,10,16,16,54,11.60
2010,10,16,16,55,11.60
2010,10,16,16,56,11.60
2010,10,16,16,57,11.60
2010,10,16,16,58,11.60
2010,10,16,16,59,11.60
2010,10,16,17,00,11.60
2010,10,16,17,01,11.60
2010,10,16,17,02,11.60
2010,10,16,17,03,11.60
2010,10,16,17,04,11.60
2010,10,16,17,05,11.60
2010,10,16,17,06,11.50
2010,10,16,17,07,11.50
2010,10,16,17,08,11.50
2010,10,16,17,09,11.50
2010,10,16,17,10,11.50
2010,10,16,17,11,11.50
2010,10,16,17,12,11.50
2010,10,16,17,13,11.50
2010,10,16,17,14,11.50
2010,10,16,17,15,11.50
2010,10,16,17,16,11.50
2010,10,16,17,17,11.50
2010,10,16,17,18,11.50
2010,10,16,17,19,11.40
2010,10,16,17,20,11.40
2010,10,16,17,21,11.40
2010,10,16,17,22,11.40
2010,10,16,17,23,11.40
2010,10,16,17,24,11.40
2010,10,16,17,25,11.30
2010,10,16,17,26,11.30
2010,10,16,17,27,11.30
2010,10,16,17,28,11.30
2010,10,16,17,29,11.30
2010,10,16,17,30,11.20
2010,10,16,17,31,11.20
2010,10,16,17,32,11.20
2010,10,16,17,33,11.10
2010,10,16,17,34,11.10
2010,10,16,17,35,11.10
2010,10,16,17,36,11.00
2010,10,16,17,37,11.00
2010,10,16,17,38,10.90
2010,10,16,17,39,10.80
2010,10,16,17,40,10.80
2010,10,16,17,41,10.80
2010,10,16,17,42,10.70
2010,10,16,17,43,10.60
2010,10,16,17,44,10.60
2010,10,16,17,45,10.50
2010,10,16,17,46,10.50
2010,10,16,17,47,10.40
2010,10,16,17,48,10.40